Date,TemperatureHighF,TemperatureAvgF,TemperatureLowF,DewpointHighF,DewpointAvgF,DewpointLowF,HumidityHigh,HumidityAvg,HumidityLow,PressureMaxIn,PressureMinIn,WindSpeedMaxMPH,WindSpeedAvgMPH,GustSpeedMaxMPH,PrecipitationSumIn
2014-1-1,49,36,27,28,24,18,88,65,32,30.42,30.16,4,0,5,0.00
2014-1-2,44,39,33,42,34,27,97,85,71,30.16,29.62,4,0,5,0.26
2014-1-3,36,25,18,27,8,0,75,49,26,30.50,29.71,8,3,11,0.01
2014-1-4,33,25,14,25,13,8,87,62,37,30.52,30.31,1,0,4,0.00
2014-1-5,40,35,31,39,34,25,99,96,76,30.30,29.78,1,0,3,0.10
2014-1-6,43,34,11,43,22,-9,99,67,36,30.21,29.65,6,2,9,0.17
2014-1-7,22,13,5,7,-3,-11,72,48,27,30.52,30.21,7,2,12,0.00
2014-1-8,42,26,11,16,8,2,80,51,23,30.63,30.50,2,0,5,0.00
2014-1-9,51,34,20,29,18,4,85,56,16,30.59,30.47,4,0,4,0.00
2014-1-10,40,37,33,35,32,27,88,82,58,30.47,30.10,3,1,6,0.86
2014-1-11,63,48,38,58,45,34,89,87,75,30.10,29.56,11,3,18,1.57
2014-1-12,55,44,32,44,32,27,85,66,38,30.17,29.69,9,2,13,0.00
2014-1-13,57,45,33,41,33,29,87,65,41,30.16,29.95,6,1,10,0.01
2014-1-14,53,44,33,48,41,31,98,89,64,29.96,29.78,2,0,5,0.27
2014-1-15,53,38,29,42,32,28,99,81,46,29.96,29.84,5,1,7,0.00
2014-1-16,42,33,27,28,21,17,81,62,39,30.03,29.92,7,2,12,0.00
2014-1-17,50,38,25,30,24,19,81,58,42,30.02,29.85,9,4,14,0.00
2014-1-18,38,30,25,28,12,2,68,48,30,30.08,29.87,5,2,9,0.00
2014-1-19,50,38,30,25,20,15,67,47,34,30.00,29.92,6,1,9,0.00
2014-1-20,62,42,28,26,23,20,80,52,20,29.92,29.78,6,1,9,0.00
2014-1-21,46,35,25,33,26,19,93,72,50,29.84,29.55,7,2,9,0.03
2014-1-22,29,22,17,19,8,-3,81,57,27,30.11,29.84,3,1,6,0.00
2014-1-23,35,24,14,13,7,-2,85,52,28,30.46,30.10,5,1,8,0.00
2014-1-24,25,16,7,2,-6,-9,63,39,22,30.63,30.27,5,1,6,0.00
2014-1-25,37,27,17,15,3,-6,50,35,24,30.26,29.67,7,3,11,0.00
2014-1-26,50,36,19,27,16,10,82,47,23,29.97,29.83,6,2,9,0.00
2014-1-27,62,47,30,34,28,4,59,48,32,30.09,29.77,7,2,10,0.00
2014-1-28,30,21,17,14,4,-8,85,50,24,30.33,30.09,6,3,16,0.00
2014-1-29,24,18,9,13,4,-6,84,57,30,30.39,30.19,6,1,10,0.02
2014-1-30,40,23,5,9,4,0,80,49,19,30.46,30.25,1,0,5,0.01
2014-1-31,52,30,11,18,13,7,85,55,22,30.25,30.15,6,1,9,0.00
2014-2-1,58,40,22,32,20,14,79,49,20,30.26,30.09,2,0,5,0.00
2014-2-2,65,50,39,47,40,32,91,71,46,30.10,29.99,5,1,9,0.00
2014-2-3,59,49,37,57,46,33,96,89,82,30.25,29.84,8,2,8,0.12
2014-2-4,37,36,34,36,33,30,97,89,82,30.40,30.10,5,2,7,0.18
2014-2-5,52,41,36,45,37,26,98,87,55,30.10,29.80,6,2,7,0.05
2014-2-6,42,35,29,27,21,18,73,58,40,30.32,30.10,5,2,8,0.00
2014-2-7,50,37,28,28,26,23,89,65,41,30.36,30.25,3,0,7,0.00
2014-2-8,53,39,32,30,27,24,76,61,42,30.28,30.11,2,0,5,0.00
2014-2-9,54,41,29,39,32,25,88,71,52,30.19,29.96,5,1,8,0.00
2014-2-10,38,34,32,31,29,25,93,82,62,30.25,30.02,3,1,5,0.03
2014-2-11,34,30,24,30,21,15,94,69,56,30.40,30.24,4,2,7,0.00
2014-2-12,25,22,20,19,14,10,89,73,54,30.43,29.85,7,3,11,0.00
2014-2-13,36,30,21,33,28,19,97,90,73,29.85,29.49,7,3,15,0.11
2014-2-14,54,41,31,30,24,19,75,54,26,29.80,29.68,5,2,8,0.58
2014-2-15,42,37,29,36,23,11,96,61,32,30.06,29.55,8,2,13,0.16
2014-2-16,49,36,28,26,21,12,77,54,34,30.17,30.02,5,1,9,0.00
2014-2-17,45,37,30,26,21,18,65,54,39,30.37,30.17,5,2,10,0.00
2014-2-18,63,46,31,31,24,16,85,47,17,30.22,30.07,4,1,8,0.00
2014-2-19,71,56,46,56,48,32,98,76,42,30.07,29.88,6,2,9,0.07
2014-2-20,74,61,47,56,46,35,84,58,45,30.16,29.93,6,2,11,0.00
2014-2-21,64,56,35,59,48,28,94,76,35,30.01,29.76,7,3,13,0.25
2014-2-22,65,47,30,38,25,16,90,52,16,30.19,30.01,3,0,5,0.00
2014-2-23,66,50,33,39,32,25,79,53,25,30.10,29.87,5,2,8,0.00
2014-2-24,58,48,34,39,24,13,79,44,20,30.13,29.87,7,2,8,0.00
2014-2-25,54,40,29,22,16,10,70,40,22,30.11,29.95,4,1,6,0.00
2014-2-26,49,38,28,21,18,10,56,44,29,29.98,29.77,4,1,7,0.00
2014-2-27,52,36,20,18,10,-1,83,39,11,30.01,29.77,6,2,9,0.00
2014-2-28,48,34,25,14,10,5,48,37,23,30.32,30.01,4,1,8,0.00
2014-3-1,53,37,27,29,20,12,77,51,34,30.37,30.22,4,0,6,0.00
2014-3-2,69,51,30,44,36,26,90,61,35,30.24,29.88,6,2,9,0.00
2014-3-3,59,37,20,44,31,13,92,80,58,30.28,29.79,9,4,14,0.02
2014-3-4,38,25,14,15,11,5,77,57,35,30.38,30.24,5,2,8,0.00
2014-3-5,50,34,26,23,17,12,71,50,27,30.30,30.14,3,0,6,0.00
2014-3-6,39,32,28,28,20,13,92,61,44,30.39,30.12,8,5,15,0.01
2014-3-14,58,54,51,23,18,11,33,24,16,30.28,30.08,7,4,11,0.00
2014-3-15,70,56,44,34,30,22,60,39,21,30.08,29.93,6,2,9,0.00
2014-3-16,53,45,36,41,34,25,95,68,39,30.03,29.81,6,2,11,0.02
2014-3-17,35,30,28,33,28,26,93,92,90,30.00,29.82,7,3,8,0.00
2014-3-18,35,30,27,34,29,25,96,94,91,30.19,29.98,4,2,6,0.00
2014-3-19,46,38,32,42,37,32,98,94,87,30.20,29.99,4,1,5,0.00
2014-3-20,65,50,38,44,32,18,98,60,18,30.05,29.94,5,1,7,0.00
2014-3-21,67,50,28,30,26,20,87,45,21,30.16,30.03,6,1,10,0.00
2014-3-22,72,59,46,39,34,28,65,42,24,30.05,29.90,6,2,10,0.00
2014-3-23,54,45,33,40,35,29,95,72,41,30.14,29.92,6,2,9,0.02
2014-3-24,52,39,30,32,16,11,90,41,21,30.29,30.08,4,1,9,0.00
2014-3-25,40,36,31,35,29,20,90,78,51,30.08,29.78,4,1,5,0.00
2014-3-26,46,35,27,22,12,7,69,42,21,30.34,29.99,5,2,11,0.00
2014-3-27,58,41,23,33,18,9,77,43,20,30.46,30.27,6,2,9,0.00
2014-3-28,63,52,43,56,47,33,98,84,59,30.27,30.10,6,1,10,0.02
2014-3-29,63,58,54,61,56,47,99,96,74,30.11,29.55,6,2,6,0.00
2014-3-30,54,45,38,46,30,23,79,56,31,29.98,29.58,9,5,13,0.00
2014-3-31,75,54,34,35,22,13,67,35,12,30.11,29.98,7,2,9,0.00
2014-4-1,80,60,39,37,31,28,77,40,16,30.13,29.98,5,1,9,0.00
2014-4-2,86,67,49,42,36,31,58,34,15,30.07,29.96,5,1,9,0.00
2014-4-3,79,63,52,51,43,33,73,49,28,30.09,29.87,4,1,6,0.00
2014-4-4,77,67,53,56,49,42,75,55,40,29.89,29.69,8,3,13,0.00
2014-4-5,70,60,50,48,34,24,74,40,19,30.06,29.77,7,2,8,0.00
2014-4-6,61,52,42,36,29,23,63,43,28,30.19,30.06,6,2,8,0.00
2014-4-7,59,49,41,57,46,36,98,91,52,30.08,29.65,5,2,8,0.19
2014-4-8,67,59,53,58,47,35,96,67,34,29.69,29.56,5,2,9,0.00
2014-4-9,66,56,44,41,35,28,85,49,27,30.10,29.68,6,2,9,0.00
2014-4-10,72,56,36,39,34,29,92,50,22,30.26,30.10,6,2,13,0.00
2014-4-11,76,64,52,46,39,34,59,42,25,30.18,30.03,8,3,11,0.00
2014-4-12,82,67,53,49,46,41,81,51,25,30.19,30.07,5,1,9,0.00
2014-4-13,80,68,58,54,51,47,73,57,38,30.17,30.03,5,2,9,0.00
2014-4-14,73,65,60,62,57,52,91,75,50,30.06,29.78,5,2,8,0.00
2014-4-15,67,56,36,63,52,25,96,86,63,30.02,29.57,7,3,13,0.45
2014-4-16,58,42,30,30,22,17,71,48,24,30.46,30.02,6,2,9,0.00
2014-4-17,66,47,32,34,27,23,80,50,20,30.56,30.41,4,1,7,0.00
2014-4-18,59,48,38,45,38,32,90,69,46,30.43,30.22,4,1,6,0.12
2014-4-19,57,50,44,46,44,40,95,81,55,30.23,30.14,6,3,9,0.26
2014-4-20,69,56,47,45,39,34,84,57,28,30.28,30.18,5,2,10,0.01
2014-4-21,74,55,39,42,32,21,82,50,15,30.19,29.92,4,1,6,0.00
2014-4-22,78,61,48,57,49,36,82,67,40,29.92,29.67,8,2,9,0.00
2014-4-23,71,60,52,52,35,25,84,44,19,29.98,29.70,9,2,13,0.00
2014-4-24,70,54,37,45,36,31,83,54,29,30.14,29.97,5,1,10,0.00
2014-4-25,75,60,49,66,52,41,90,78,58,29.98,29.66,4,0,7,0.06
2014-4-26,78,63,45,51,44,38,92,56,25,30.00,29.84,4,1,6,0.00
2014-4-27,84,67,49,53,46,40,88,53,22,30.00,29.87,1,0,4,0.00
2014-4-28,68,60,54,55,51,48,84,72,57,29.97,29.88,1,0,2,0.00
2014-4-29,56,53,51,54,52,49,98,95,84,30.03,29.89,2,0,4,0.00
2014-4-30,76,66,54,69,61,53,99,87,68,30.02,29.84,3,0,7,0.22
2014-5-1,77,69,60,60,56,45,84,65,39,29.87,29.74,4,1,8,0.00
2014-5-2,66,57,47,47,43,37,87,61,37,29.94,29.81,1,0,4,0.00
2014-5-3,72,61,50,49,44,37,91,59,28,29.91,29.83,3,0,5,0.00
2014-5-4,82,65,48,53,46,42,86,54,24,29.99,29.80,3,0,6,0.00
2014-5-5,77,64,54,56,52,46,83,64,48,29.99,29.80,3,0,6,0.00
2014-5-6,83,66,51,58,51,45,91,65,27,29.95,29.84,1,0,4,0.00
2014-5-7,75,66,61,62,59,57,91,79,61,30.12,29.95,0,0,0,0.00
2014-5-8,86,71,56,60,54,47,95,62,27,30.17,30.05,3,0,5,0.00
2014-5-9,84,68,58,64,58,53,94,73,39,30.13,30.00,3,0,8,0.02
2014-5-10,78,66,60,65,60,53,95,83,45,30.08,29.98,5,0,6,0.14
2014-5-11,80,68,57,65,58,52,98,74,38,30.14,30.03,1,0,2,0.00
2014-5-12,85,71,56,64,59,53,95,69,42,30.17,30.08,0,0,0,0.00
2014-5-13,86,74,62,68,62,57,94,70,37,30.12,30.04,0,0,0,0.00
2014-5-14,83,74,67,66,62,56,89,67,41,30.13,30.01,0,0,0,0.00
2014-5-15,70,67,63,67,64,60,99,92,69,30.06,29.80,0,0,0,2.05
2014-5-16,67,59,51,62,49,41,98,72,41,30.05,29.82,2,0,4,0.00
2014-5-17,65,56,43,52,42,36,89,61,40,30.17,30.05,2,0,5,0.00
2014-5-18,63,57,50,49,44,40,85,62,43,30.23,30.15,1,0,2,0.00
2014-5-19,70,58,46,50,46,42,95,66,39,30.31,30.20,1,0,2,0.00
2014-5-20,75,63,49,58,52,45,90,69,48,30.27,30.08,2,0,5,0.00
2014-5-21,82,72,61,62,59,56,91,67,43,30.08,29.91,2,0,5,0.00
2014-5-22,83,73,66,62,60,56,86,65,44,29.94,29.82,2,0,3,0.00
2014-5-23,79,71,62,63,59,47,93,68,42,30.01,29.90,1,0,2,0.00
2014-5-24,76,66,53,54,48,42,81,53,32,30.11,29.99,1,0,2,0.00
2014-5-25,76,66,54,59,54,50,89,67,45,30.18,30.09,1,0,3,0.00
2014-5-26,82,71,60,64,60,55,89,70,49,30.18,30.03,1,0,4,0.00
2014-5-27,82,71,66,71,66,62,97,85,51,30.08,29.94,2,0,6,0.38
2014-5-28,83,74,64,68,65,61,98,78,48,30.00,29.91,0,0,0,0.00
2014-5-29,78,71,64,67,64,61,94,80,64,30.08,29.95,1,0,2,0.00
2014-5-30,77,70,65,66,64,62,95,83,66,30.11,30.01,2,0,3,0.00
2014-5-31,77,69,64,64,60,54,97,75,47,30.18,30.09,2,0,2,0.11
2014-6-1,74,66,59,55,53,48,86,64,39,30.32,30.18,1,0,4,0.00
2014-6-2,76,65,53,57,53,49,91,67,43,30.27,30.10,1,0,4,0.00
2014-6-3,81,69,55,66,59,52,93,72,54,30.11,29.92,1,0,4,0.00
2014-6-4,85,75,64,66,64,60,90,69,47,29.93,29.73,1,0,2,0.00
2014-6-5,84,77,69,68,64,58,88,67,48,29.83,29.69,1,0,4,0.00
2014-6-6,80,72,63,64,59,53,78,66,49,29.93,29.81,1,0,2,0.00
2014-6-7,80,71,61,65,61,57,95,71,48,30.01,29.92,1,0,2,0.00
2014-6-8,80,70,64,68,64,59,96,82,56,29.96,29.84,2,0,5,0.14
2014-6-9,80,70,66,70,66,65,98,88,64,29.92,29.83,2,0,6,1.07
2014-6-10,86,74,64,72,67,63,99,81,51,29.93,29.85,2,0,5,0.00
2014-6-11,86,73,65,68,66,62,97,80,49,29.94,29.78,5,0,5,0.60
2014-6-12,80,72,66,70,67,64,99,85,62,29.90,29.78,1,0,2,0.02
2014-6-13,80,72,65,68,66,62,97,81,60,29.85,29.77,1,0,2,0.00
2014-6-14,80,73,65,66,60,54,91,66,42,30.04,29.85,1,0,2,0.00
2014-6-15,81,70,58,66,61,54,90,73,49,30.18,30.04,1,0,2,0.00
2014-6-16,87,76,67,70,67,63,95,74,50,30.17,30.06,1,0,3,0.00
2014-6-17,88,78,69,71,68,65,93,73,50,30.14,30.03,0,0,4,0.00
2014-6-18,89,80,69,70,67,64,88,67,43,30.09,30.00,0,0,1,0.00
2014-6-19,89,76,69,70,66,62,87,73,48,30.07,29.97,1,0,2,0.00
2014-6-20,87,76,66,72,68,64,95,78,48,30.01,29.89,1,0,2,0.07
2014-6-21,83,75,68,73,69,66,97,82,58,29.92,29.77,1,0,2,0.01
2014-6-22,81,74,69,70,66,65,92,78,60,29.96,29.80,2,0,3,0.00
2014-6-23,80,73,66,66,64,63,91,75,57,30.09,29.95,1,0,2,0.00
2014-6-24,81,73,69,73,67,63,92,81,60,30.11,29.98,2,0,4,0.05
2014-6-25,85,76,70,70,69,67,96,80,55,29.99,29.86,2,0,4,0.01
2014-6-26,87,77,67,68,66,62,93,70,45,29.97,29.87,1,0,3,0.00
2014-6-27,83,75,70,70,67,64,87,78,61,30.08,29.95,1,0,2,0.01
2014-6-28,81,74,70,68,66,64,92,77,57,30.19,30.09,2,0,3,0.00
2014-6-29,80,72,64,64,59,55,82,64,45,30.21,30.10,1,0,2,0.00
2014-6-30,84,74,64,69,65,59,88,75,55,30.10,29.93,1,0,5,0.00
2014-7-1,88,78,70,71,69,67,94,75,53,29.97,29.85,1,0,6,0.00
2014-7-2,90,81,73,72,70,67,90,71,47,29.92,29.87,1,0,4,0.00
2014-7-3,85,76,71,74,70,66,96,82,64,29.98,29.83,4,0,6,0.17
2014-7-4,81,74,68,66,57,50,80,58,37,30.16,29.89,2,0,5,0.00
2014-7-5,79,70,61,57,51,48,71,52,34,30.27,30.17,1,0,4,0.00
2014-7-6,83,72,60,63,58,51,89,64,33,30.17,30.00,0,0,0,0.00
2014-7-7,88,77,67,68,64,58,92,65,37,30.03,29.89,2,0,5,0.00
2014-7-8,90,79,70,68,64,56,86,63,33,29.99,29.84,2,0,6,0.00
2014-7-9,85,75,70,70,67,65,93,78,52,29.99,29.89,2,0,2,0.02
2014-7-10,78,72,68,71,68,66,96,87,68,30.08,29.97,3,0,4,0.04
2014-7-11,82,74,68,68,67,65,96,80,57,30.18,30.07,1,0,1,0.00
2014-7-12,86,76,65,69,64,60,96,70,41,30.20,30.09,1,0,2,0.00
2014-7-13,88,78,68,69,65,62,92,66,44,30.11,29.96,1,0,4,0.00
2014-7-14,92,81,73,70,67,61,87,65,36,29.98,29.81,1,0,4,0.00
2014-7-15,86,75,68,71,69,65,97,82,53,29.84,29.70,3,0,6,0.81
2014-7-16,78,70,64,68,62,54,98,78,50,29.92,29.76,1,0,2,0.08
2014-7-17,78,70,58,63,56,51,87,63,43,30.08,29.92,1,0,1,0.00
2014-7-18,81,72,62,64,60,57,89,70,45,30.17,30.08,0,0,0,0.00
2014-7-19,79,70,65,66,61,54,94,75,42,30.15,30.07,0,0,0,0.10
2014-7-20,74,68,63,70,66,62,98,93,86,30.11,30.03,0,0,0,0.09
2014-7-21,73,70,67,72,69,66,98,96,93,30.13,30.04,2,0,2,0.06
2014-7-22,80,72,68,72,70,67,98,92,68,30.15,30.05,0,0,0,0.33
2014-7-23,86,76,67,73,70,66,99,82,56,30.08,29.88,1,0,2,0.00
2014-7-24,83,75,67,73,70,65,96,84,63,29.95,29.78,2,0,4,0.05
2014-7-25,78,71,66,68,66,64,97,84,65,30.05,29.94,0,0,0,0.00
2014-7-26,84,75,67,71,68,66,98,81,56,30.01,29.90,1,0,4,0.00
2014-7-27,85,76,69,74,69,66,96,81,59,29.93,29.73,2,0,4,0.06
2014-7-28,82,75,67,70,62,55,92,66,43,29.86,29.73,5,0,7,0.02
2014-7-29,77,69,60,63,58,54,87,70,47,29.97,29.85,0,0,1,0.00
2014-7-30,77,69,62,64,61,58,92,75,58,30.06,29.97,0,0,0,0.00
2014-7-31,76,69,63,67,64,60,96,83,62,30.14,30.04,1,0,2,0.40
2014-8-1,67,65,63,67,64,62,99,98,95,30.14,30.05,0,0,0,0.35
2014-8-2,67,64,61,65,63,61,99,96,91,30.12,30.05,0,0,0,0.00
2014-8-3,78,69,62,67,65,62,99,86,63,30.12,30.01,0,0,0,0.00
2014-8-4,82,73,67,68,66,63,98,81,55,30.08,30.00,0,0,0,0.00
2014-8-5,83,73,64,69,65,62,98,78,50,30.05,29.95,0,0,0,0.00
2014-8-6,85,76,67,69,65,56,93,72,40,29.97,29.89,0,0,0,0.00
2014-8-7,83,74,66,68,65,63,95,76,55,30.01,29.90,0,0,4,0.00
2014-8-8,74,70,67,68,66,64,96,87,77,30.11,30.00,0,0,0,0.01
2014-8-9,70,66,64,67,64,62,98,94,89,30.09,30.01,1,0,2,0.56
2014-8-10,70,66,64,70,66,63,99,98,98,30.10,30.03,0,0,0,0.00
2014-8-11,76,70,68,70,68,66,98,93,78,30.06,29.94,1,0,3,1.35
2014-8-12,83,73,68,74,70,67,99,91,69,29.94,29.74,1,0,2,0.03
2014-8-13,76,70,63,70,62,56,98,79,55,29.97,29.79,0,0,0,0.00
2014-8-14,71,62,57,61,57,54,93,83,64,30.04,29.96,0,0,0,0.00
2014-8-15,80,71,60,66,62,58,96,77,53,30.02,29.93,0,0,0,0.00
2014-8-16,82,73,64,67,63,59,93,74,53,30.02,29.94,0,0,0,0.00
2014-8-17,82,74,68,70,67,64,95,78,54,29.99,29.92,0,0,0,0.00
2014-8-18,81,72,68,73,69,66,98,90,72,29.92,29.75,4,0,5,0.77
2014-8-19,83,72,67,73,69,66,99,90,64,29.88,29.75,1,0,1,0.20
2014-8-20,84,75,69,73,71,68,99,88,63,30.00,29.85,0,0,2,0.00
2014-8-21,85,76,69,71,68,65,96,78,55,30.07,29.96,0,0,0,0.00
2014-8-22,86,76,69,73,70,66,96,83,57,30.02,29.91,0,0,0,0.00
2014-8-23,83,77,72,73,71,69,95,83,67,29.95,29.87,0,0,0,0.00
2014-8-24,74,71,69,69,65,61,88,80,66,30.09,29.93,1,0,4,0.00
2014-8-25,78,68,60,62,58,56,92,72,48,30.11,30.06,2,0,5,0.00
2014-8-26,78,69,60,62,59,57,91,73,49,30.14,30.06,1,0,3,0.00
2014-8-27,83,71,60,63,59,53,93,70,37,30.07,29.95,1,0,1,0.00
2014-8-28,87,73,64,69,64,60,93,77,51,29.99,29.93,0,0,0,0.00
2014-8-29,78,76,72,69,68,65,88,78,71,30.13,30.07,0,0,0,0.00
2014-8-30,86,80,71,71,69,66,96,72,52,30.18,30.07,1,0,1,0.00
2014-8-31,86,78,70,72,70,67,96,78,57,30.16,30.01,1,0,4,0.00
2014-9-1,89,78,70,72,68,62,95,73,42,30.07,29.98,1,0,2,0.00
2014-9-2,90,77,68,71,68,65,94,76,45,30.04,29.90,2,0,4,0.11
2014-9-3,86,76,69,71,69,65,98,82,53,30.10,29.94,0,0,1,0.09
2014-9-4,82,74,69,74,70,66,98,89,70,30.17,30.07,2,0,4,0.00
2014-9-5,86,75,68,72,69,67,97,84,55,30.18,30.05,1,0,2,0.01
2014-9-6,86,76,67,71,68,66,97,80,54,30.07,29.90,1,0,3,0.00
2014-9-7,79,73,69,68,66,64,95,81,65,30.08,29.94,2,0,4,0.00
2014-9-8,70,66,63,67,65,62,98,96,80,30.10,30.02,2,1,6,0.05
2014-9-9,74,68,63,68,65,62,99,93,81,30.12,30.05,2,0,3,0.00
2014-9-10,77,70,65,69,67,64,98,90,70,30.12,30.00,0,0,0,0.00
2014-9-11,86,75,65,74,69,63,98,82,61,30.03,29.90,2,0,5,0.00
2014-9-12,79,74,70,72,69,66,97,86,75,30.07,29.95,0,0,0,0.00
2014-9-13,78,72,65,73,68,57,98,88,72,30.16,30.01,0,0,0,0.07
2014-9-14,70,66,63,59,57,55,82,74,63,30.26,30.15,0,0,0,0.00
2014-9-15,72,67,62,65,62,58,93,84,72,30.22,30.08,0,0,0,0.00
2014-9-16,81,72,67,68,66,63,97,83,54,30.08,29.90,0,0,0,0.03
2014-9-17,76,69,63,67,63,60,97,84,65,29.98,29.88,0,0,2,0.00
2014-9-18,76,68,61,66,62,59,97,82,64,30.03,29.90,0,0,0,0.00
2014-9-19,76,68,63,64,62,58,96,82,55,30.22,30.03,0,0,0,0.05